GW2402 Weather Reports


Display with metric or nautical units.
time (UTC)temp
F
wind
direction
speed
MPH
gust
MPH
rain 1hr
in
rain 24hr
in
rain mn
in
humidity
%
barometer
mb
20260504030108 69 0 0.0 0.0 0.00 0.00 0.00 59 1017.0
20260504024541 69 0 0.0 0.0 0.00 0.00 0.00 57 1017.1
20260504023041 70 0 0.0 0.0 0.00 0.00 0.00 55 1017.0
20260504021539 70 0 0.0 0.0 0.00 0.00 0.00 54 1017.1
20260504020046 71 0 0.0 0.0 0.00 0.00 0.00 53 1017.2
20260504014552 71 0 0.0 0.0 0.00 0.00 0.00 53 1016.6
20260504013052 72 0 0.0 0.0 0.00 0.00 0.00 52 1016.5
20260504011543 73 0 0.0 0.0 0.00 0.00 0.00 50 1016.5
20260504010040 74 0 0.0 1.0 0.00 0.00 0.00 50 1016.6
20260504004549 74 0 0.0 1.0 0.00 0.00 0.00 48 1016.5
20260504003047 75 0 0.0 1.0 0.00 0.00 0.00 47 1016.5
20260504001559 76 0 0.0 2.0 0.00 0.00 0.00 45 1016.8
20260504000050 76 0 0.0 1.0 0.00 0.00 0.00 44 1016.9
20260503234541 77 0 0.0 2.0 0.00 0.00 0.00 43 1017.2
20260503233049 77 181 0.0 1.0 0.00 0.00 0.00 45 1017.2
20260503231552 77 0 0.0 1.0 0.00 0.00 0.00 44 1017.2
20260503230046 77 0 0.0 2.0 0.00 0.00 0.00 44 1017.2
20260503224544 78 316 0.0 2.0 0.00 0.00 0.00 42 1017.5
20260503223042 78 91 0.0 2.0 0.00 0.00 0.00 43 1017.7
20260503221549 78 0 0.0 2.0 0.00 0.00 0.00 40 1017.8
20260503220050 79 52 0.0 2.0 0.00 0.00 0.00 43 1018.1
20260503214556 79 326 0.0 2.0 0.00 0.00 0.00 41 1018.2
20260503213047 80 274 0.0 3.0 0.00 0.00 0.00 43 1018.5
20260503211548 79 324 1.0 3.0 0.00 0.00 0.00 39 1018.9
20260503210041 79 0 0.0 5.0 0.00 0.00 0.00 42 1019.2
20260503204553 79 0 0.0 3.0 0.00 0.00 0.00 42 1019.3
20260503203050 78 262 0.0 8.0 0.00 0.00 0.00 43 1019.7
20260503201547 79 266 0.0 5.0 0.00 0.00 0.00 43 1019.8
20260503200044 79 0 0.0 4.0 0.00 0.00 0.00 43 1020.0
20260503194549 79 104 1.0 4.0 0.00 0.00 0.00 44 1020.3
20260503193106 78 0 0.0 3.0 0.00 0.00 0.00 43 1020.6
20260503191550 78 271 0.0 3.0 0.00 0.00 0.00 45 1020.7
20260503190059 78 0 0.0 2.0 0.00 0.00 0.00 43 1020.8
20260503184543 77 325 0.0 3.0 0.00 0.00 0.00 47 1020.9
20260503183059 78 131 0.0 3.0 0.00 0.00 0.00 47 1021.3
20260503181547 78 0 0.0 4.0 0.00 0.00 0.00 44 1021.5
20260503180055 78 0 0.0 4.0 0.00 0.00 0.00 44 1021.7
20260503174551 78 0 0.0 2.0 0.00 0.00 0.00 46 1021.9
20260503173109 78 91 0.0 3.0 0.00 0.00 0.00 47 1022.2
20260503171552 77 360 2.0 6.0 0.00 0.00 0.00 42 1022.4
20260503081546 55 0 0.0 0.0 0.00 0.00 0.00 90 1021.2
20260503071622 56 0 0.0 0.0 0.00 0.00 0.00 89 1021.4
20260503054546 57 0 0.0 0.0 0.00 0.00 0.00 87 1021.7
20260503053045 58 0 0.0 0.0 0.00 0.00 0.00 86 1021.6
20260503051556 58 0 0.0 0.0 0.00 0.00 0.00 85 1021.7
20260503050039 58 0 0.0 0.0 0.00 0.00 0.00 84 1021.7
20260503044547 59 0 0.0 0.0 0.00 0.00 0.00 84 1021.5
20260503043048 59 0 0.0 0.0 0.00 0.00 0.00 82 1021.7
20260503041542 60 0 0.0 0.0 0.00 0.00 0.00 81 1021.4
20260503040040 60 0 0.0 0.0 0.00 0.00 0.00 79 1021.5
20260503034546 61 0 0.0 0.0 0.00 0.00 0.00 77 1021.4
20260503033048 61 0 0.0 0.0 0.00 0.00 0.00 74 1021.3
20260503031548 62 0 0.0 0.0 0.00 0.00 0.00 73 1021.0